Weather History for Louisville, KY

Change the Weather History Date:

Wednesday, June 26, 2013

  Actual Average Record
Temperature  
Mean Temperature 79 °F 78 °F  
Max Temperature 88 °F 88 °F 101 °F (1954)
Min Temperature 69 °F 69 °F 52 °F (1974)
Degree Days  
Heating Degree Days 0 0  
Month to date heating degree days 0 1  
Since 1 June heating degree days 0 1  
Since 1 July heating degree days 4115 4093  
Cooling Degree Days 14 13  
Month to date cooling degree days 284 270  
Year to date cooling degree days 512 444  
Since 1 June cooling degree days 284 270  
Growing Degree Days 28 (Base 50)    
Moisture  
Dew Point 69 °F    
Average Humidity 78    
Maximum Humidity 97    
Minimum Humidity 59    
Precipitation  
Precipitation 2.69 in 0.12 in 2.69 in (2013)
Month to date precipitation 3.76 3.34  
Year to date precipitation 22.81 23.21  
Snow  
Snow 0.00 in 0.00 in - ()
Month to date snowfall 0.0 0.0  
Since 1 June snowfall 0.0 0.0  
Since 1 July snowfall 9.8 12.5  
Snow Depth 0.00 in    
Sea Level Pressure  
Sea Level Pressure 29.87 in    
Wind  
Wind Speed 10 mph (WNW)    
Max Wind Speed 33 mph    
Max Gust Speed 49 mph    
Visibility 8 miles    
Events Rain , Thunderstorm    
T = Trace of Precipitation, MM = Missing Value Source: NWS Daily Summary

Daily Weather History Graph

Daily Weather History Graph

Search for Another Location

Airport:

Trip Planner

Search our weather history database for the weather conditions in past years. The results will help you decide how hot, cold, wet, or windy it might be!

Date:

Astronomy

Jun. 26, 2013 Rise Set
Actual Time 6:21 AM EDT 9:10 PM EDT
Civil Twilight 5:50 AM EDT 9:41 PM EDT
Nautical Twilight 5:10 AM EDT 10:21 PM EDT
Astronomical Twilight 4:25 AM EDT 11:06 PM EDT
Moon 11:37 PM EDT (6/26) 10:08 AM EDT (6/26)
Length of Visible Light 15h 51m
Length of Day
14h 48m
Waning Gibbous, 85% of the Moon is Illuminated
Jun 26
Waning Gibbous
Jun 30
Last Quarter
Jul 8
New
Jul 15
First Quarter
Jul 22
Full

Hourly Weather History & Observations

Time (EDT) Temp. Heat Index Dew Point Humidity Pressure Visibility Wind Dir Wind Speed Gust Speed Precip Events Conditions
12:56 AM 82.0 °F 86.7 °F 72.0 °F 71% 29.94 in 10.0 mi SW 10.4 mph - N/A   Mostly Cloudy
1:56 AM 81.0 °F 84.9 °F 71.1 °F 72% 29.93 in 10.0 mi SW 9.2 mph - N/A   Overcast
2:56 AM 81.0 °F 84.9 °F 71.1 °F 72% 29.93 in 10.0 mi WSW 10.4 mph - N/A   Overcast
3:43 AM 75.2 °F - 64.4 °F 69% 29.95 in 10.0 mi North 24.2 mph 28.8 mph N/A   Mostly Cloudy
3:54 AM 73.4 °F - 64.4 °F 73% 29.98 in 10.0 mi NNW 19.6 mph 27.6 mph 0.00 in Rain , Thunderstorm Heavy Thunderstorms and Rain
3:56 AM 73.0 °F - 66.0 °F 79% 29.96 in 10.0 mi NNW 19.6 mph 27.6 mph 0.00 in Rain , Thunderstorm Light Thunderstorms and Rain
4:13 AM 71.6 °F - 66.2 °F 83% 29.98 in 4.0 mi North 10.4 mph - 0.03 in Rain , Thunderstorm Thunderstorms and Rain
4:46 AM 69.8 °F - 68.0 °F 94% 29.98 in 10.0 mi NE 6.9 mph - 0.29 in Rain Light Rain
4:56 AM 70.0 °F - 68.0 °F 93% 29.97 in 10.0 mi North 5.8 mph - 0.29 in Rain Light Rain
5:04 AM 69.8 °F - 68.0 °F 94% 30.01 in 10.0 mi NW 9.2 mph - 0.00 in Rain , Thunderstorm Light Thunderstorms and Rain
5:56 AM 69.1 °F - 66.9 °F 93% 29.97 in 10.0 mi Calm Calm - 0.10 in Rain , Thunderstorm Light Thunderstorms and Rain
6:06 AM 69.8 °F - 66.2 °F 88% 29.98 in 10.0 mi ESE 5.8 mph - 0.00 in Rain Light Rain
6:56 AM 70.0 °F - 66.9 °F 90% 29.95 in 10.0 mi South 10.4 mph - 0.00 in Rain Light Rain
7:56 AM 71.1 °F - 68.0 °F 90% 29.94 in 10.0 mi SE 9.2 mph - 0.00 in   Mostly Cloudy
8:56 AM 73.0 °F - 69.1 °F 87% 29.94 in 10.0 mi SSE 8.1 mph - N/A   Mostly Cloudy
9:56 AM 78.1 °F - 69.1 °F 74% 29.94 in 10.0 mi South 5.8 mph - N/A   Overcast
10:56 AM 81.0 °F 84.4 °F 70.0 °F 69% 29.92 in 10.0 mi SSW 10.4 mph 17.3 mph N/A   Overcast
11:56 AM 82.9 °F 88.0 °F 72.0 °F 69% 29.91 in 10.0 mi SW 16.1 mph 20.7 mph N/A   Overcast
12:56 PM 86.0 °F 93.0 °F 73.0 °F 65% 29.86 in 10.0 mi SSW 17.3 mph - N/A   Overcast
1:56 PM 87.1 °F 93.6 °F 72.0 °F 61% 29.87 in 10.0 mi SSW 13.8 mph - N/A   Overcast
2:56 PM 87.1 °F 92.8 °F 71.1 °F 59% 29.86 in 10.0 mi SSW 15.0 mph - 0.00 in   Overcast
3:56 PM 87.1 °F 93.6 °F 72.0 °F 61% 29.83 in 10.0 mi SW 15.0 mph 20.7 mph N/A   Overcast
4:47 PM 86.0 °F 91.8 °F 71.6 °F 62% 29.84 in 10.0 mi WSW 12.7 mph - N/A Thunderstorm Thunderstorm
4:56 PM 75.0 °F - 64.9 °F 71% 29.89 in 2.5 mi NNW 32.2 mph 49.5 mph 0.00 in Rain , Thunderstorm Heavy Thunderstorms and Rain
4:59 PM 71.6 °F - 66.2 °F 83% 29.89 in 1.2 mi NNW 20.7 mph 49.5 mph 0.11 in Rain , Thunderstorm Heavy Thunderstorms and Rain
5:08 PM 69.8 °F - 66.2 °F 88% 29.87 in 3.0 mi NNW 11.5 mph 26.5 mph 0.21 in Rain , Thunderstorm Thunderstorms and Rain
5:30 PM 69.8 °F - 68.0 °F 94% 29.88 in 2.0 mi NNW 11.5 mph - 0.37 in Rain , Thunderstorm Thunderstorms and Rain
5:33 PM 69.8 °F - 66.2 °F 88% 29.84 in 1.2 mi NNE 13.8 mph 18.4 mph 0.48 in Rain , Thunderstorm Heavy Thunderstorms and Rain
5:41 PM 69.8 °F - 68.0 °F 94% 29.87 in 2.0 mi WNW 8.1 mph - 0.61 in Rain , Thunderstorm Thunderstorms and Rain
5:50 PM 69.8 °F - 68.0 °F 94% 29.86 in 1.8 mi NNW 6.9 mph - 0.79 in Rain , Thunderstorm Heavy Thunderstorms and Rain
5:56 PM 70.0 °F - 68.0 °F 93% 29.83 in 2.5 mi North 9.2 mph - 0.82 in Rain , Thunderstorm Thunderstorms and Rain
6:04 PM 69.8 °F - 68.0 °F 94% 29.84 in 1.8 mi NNE 5.8 mph - 0.15 in Rain , Thunderstorm Heavy Thunderstorms and Rain
6:09 PM 69.8 °F - 68.0 °F 94% 29.82 in 2.5 mi SE 8.1 mph - 0.18 in Rain , Thunderstorm Light Thunderstorms and Rain
6:13 PM 69.8 °F - 68.0 °F 94% 29.82 in 6.0 mi SE 8.1 mph - 0.18 in Thunderstorm Overcast
6:31 PM 69.8 °F - 69.8 °F 100% 29.81 in 10.0 mi SE 9.2 mph - 0.18 in   Overcast
6:56 PM 71.1 °F - 69.1 °F 93% 29.78 in 10.0 mi SE 8.1 mph - 0.18 in   Overcast
7:43 PM 71.6 °F - 69.8 °F 94% 29.79 in 10.0 mi SE 10.4 mph - N/A   Overcast
7:56 PM 72.0 °F - 69.1 °F 91% 29.78 in 10.0 mi ESE 8.1 mph - N/A   Overcast
8:34 PM 71.6 °F - 69.8 °F 94% 29.77 in 10.0 mi ESE 6.9 mph - 0.00 in Rain , Thunderstorm Light Thunderstorms and Rain
8:56 PM 71.1 °F - 69.1 °F 93% 29.77 in 10.0 mi NE 4.6 mph - 0.09 in Rain , Thunderstorm Light Thunderstorms and Rain
9:17 PM 71.6 °F - 69.8 °F 94% 29.84 in 1.5 mi NW 19.6 mph 24.2 mph 0.12 in Rain , Thunderstorm Heavy Thunderstorms and Rain
9:21 PM 71.6 °F - 69.8 °F 94% 29.83 in 1.0 mi NNW 18.4 mph 24.2 mph 0.34 in Rain , Thunderstorm Heavy Thunderstorms and Rain
9:23 PM 71.6 °F - 69.8 °F 94% 29.82 in 0.8 mi North 17.3 mph 24.2 mph 0.48 in Rain , Thunderstorm Heavy Thunderstorms and Rain
9:32 PM 71.6 °F - 69.8 °F 94% 29.80 in 1.0 mi North 13.8 mph - 0.91 in Rain , Thunderstorm Heavy Thunderstorms and Rain
9:43 PM 71.6 °F - 69.8 °F 94% 29.78 in 2.5 mi NNE 9.2 mph - 1.08 in Rain , Thunderstorm Thunderstorms and Rain
9:45 PM 71.6 °F - 69.8 °F 94% 29.78 in 4.0 mi NE 9.2 mph - 1.09 in Rain , Thunderstorm Light Thunderstorms and Rain
9:56 PM 72.0 °F - 70.0 °F 93% 29.77 in 9.0 mi ESE 5.8 mph - 1.09 in Rain , Thunderstorm Light Thunderstorms and Rain
10:17 PM 71.6 °F - 69.8 °F 94% 29.77 in 8.0 mi SSE 13.8 mph - 0.04 in Rain , Thunderstorm Light Thunderstorms and Rain
10:37 PM 71.6 °F - 69.8 °F 94% 29.76 in 8.0 mi SSE 12.7 mph - 0.06 in Rain Light Rain
10:42 PM 71.6 °F - 69.8 °F 94% 29.77 in 8.0 mi SE 10.4 mph - 0.06 in Rain , Thunderstorm Light Thunderstorms and Rain
10:56 PM 71.1 °F - 70.0 °F 96% 29.84 in 9.0 mi West 9.2 mph - 0.09 in Rain , Thunderstorm Light Thunderstorms and Rain
11:38 PM 71.6 °F - 69.8 °F 94% 29.81 in 10.0 mi Calm Calm - 0.03 in Rain , Thunderstorm Light Thunderstorms and Rain
11:53 PM 71.6 °F - 68.0 °F 88% 29.81 in 10.0 mi WSW 5.8 mph - 0.03 in Rain Light Rain
11:56 PM 71.1 °F - 68.0 °F 90% 29.79 in 10.0 mi Calm Calm - 0.03 in Rain Light Rain